#timestamp,LO_Frequency,Hit,StdDev 
1668420015.2,286047002.2,N
1668420035.0,286047001.7,N
1668420035.9,286047001.7,N
1668420055.8,286047002.8,N
1668420075.6,286047002.2,N
1668420095.5,286047002.5,N
1668420115.3,286046999.9,N
1668420135.1,286047000.5,N
1668420155.9,286047000.8,N
1668420175.7,286047001.1,N
1668420195.5,286047000.9,N
1668420215.4,286047000.2,N
1668420235.2,286047002.3,N
1668420255.1,286047001.6,N
1668420256.0,286047001.6,N
1668420275.8,286047001.8,N
1668420295.6,286047004.1,Y
1668420315.5,286047001.1,P
1668420335.3,286046997.4,P
1668420355.1,286046995.0,N
1668420375.9,286046992.3,N
1668420395.7,286046994.3,N
1668420415.6,286046992.8,N
1668420435.4,286046993.9,N
1668420455.2,286046995.3,N
1668420475.1,286046997.2,N
1668420476.0,286046997.2,N
1668420495.8,286046998.3,N
1668420515.7,286047001.0,N
1668420535.5,286047000.7,N
1668420555.3,286047001.1,N
1668420575.2,286047000.4,N
1668420595.0,286046999.8,N
1668420595.9,286046999.8,N
1668420615.7,286047000.4,N
1668420635.6,286047000.1,N
1668420655.4,286047002.7,N
1668420675.3,286047002.8,N
1668420695.1,286047002.7,N
1668420696.0,286047002.7,N
1668420715.8,286047002.0,N
1668420735.7,286047002.8,N
1668420755.5,286047000.5,N
1668420775.3,286046997.7,N
1668420795.2,286046999.3,N
1668420815.0,286046999.5,N
1668420815.9,286046999.5,N
1668420835.8,286046997.3,N
1668420855.6,286046997.8,N
1668420875.4,286046994.9,N
1668420895.3,286046997.4,N
1668420915.1,286046997.2,N
1668420935.8,286046998.7,N
1668420955.7,286046996.5,N
1668420975.5,286046998.1,N
1668420995.4,286047000.8,N
1668421015.2,286047000.6,N
1668421035.0,286047000.7,N
1668421035.9,286047000.7,N
1668421055.8,286047001.0,N
1668421075.6,286047002.3,N
1668421095.4,286047002.5,N
1668421115.3,286047002.3,N
1668421135.1,286047000.3,N
1668421155.9,286047000.5,N
1668421175.7,286047000.9,N
1668421195.5,286047002.8,N
1668421215.4,286047002.2,N
1668421235.2,286046999.8,N
1668421255.0,286047001.0,N
1668421255.9,286047001.0,N
1668421275.8,286047001.1,N
1668421295.6,286047002.8,N
1668421315.5,286046998.6,N
1668421335.3,286046997.0,N
1668421355.2,286046998.2,N
1668421375.9,286046998.6,N
1668421395.7,286047001.1,N
1668421415.6,286046998.4,N
1668421435.4,286046998.2,N
1668421455.2,286047000.9,N
1668421475.1,286046998.6,N
1668421476.0,286046998.6,N
1668421495.8,286047000.2,N
1668421515.7,286047000.0,N
1668421535.5,286047001.0,N
1668421555.3,286046999.9,N
1668421575.2,286046999.9,N
1668421595.0,286047002.4,N
1668421595.9,286047002.4,N
1668421615.7,286046999.7,N
1668421635.6,286047000.0,N
1668421655.4,286047002.8,N
1668421675.3,286047000.3,N
1668421695.1,286047000.5,N
1668421696.0,286047000.5,N
1668421715.8,286047000.6,N
1668421735.7,286046998.2,N
1668421755.5,286047001.0,N
1668421775.3,286047000.1,N
1668421795.2,286047000.1,N
1668421815.0,286047000.9,N
1668421815.9,286047000.9,N
1668421835.8,286047000.4,N
1668421855.6,286046999.7,N
1668421875.4,286046998.7,N
1668421895.3,286046997.2,N
1668421915.1,286046999.2,N
1668421935.8,286046999.6,N
1668421955.7,286046998.8,N
1668421975.5,286046999.3,N
1668421995.4,286046999.0,N
1668422015.2,286046998.1,N
1668422035.0,286046998.6,N
1668422035.9,286046998.6,N
1668422055.8,286047001.2,N
1668422075.6,286046998.7,N
1668422095.4,286046999.1,N
1668422115.3,286046996.7,N
1668422135.1,286046997.2,N
1668422155.9,286046997.2,N
1668422175.7,286046997.5,N
1668422195.5,286046995.2,Y
1668422215.4,286046997.5,P
1668422235.2,286046997.8,N
1668422255.1,286046997.7,N
1668422256.0,286046997.7,Y
1668422275.8,286046999.3,P
1668422295.6,286046999.4,N
1668422315.5,286046999.5,N
1668422335.3,286046999.0,N
1668422355.1,286046999.5,N
1668422375.9,286046996.5,Y
1668422395.7,286046998.3,P
1668422415.6,286046996.9,P
1668422435.4,286046996.7,P
1668422455.2,286046996.6,Y
1668422475.1,286047000.9,P
1668422476.0,286047000.9,N
1668422495.8,286046999.9,N
1668422515.7,286047000.6,N
1668422535.5,286047000.9,N
1668422555.3,286046998.2,N
1668422575.2,286047001.2,N
1668422595.9,286047000.6,N
1668422615.7,286047000.2,N
1668422635.6,286047000.5,N
1668422655.4,286046998.2,N
1668422675.3,286046996.5,Y
1668422695.1,286046999.4,P
1668422696.0,286046999.4,N
1668422715.8,286046999.2,N
1668422735.7,286046997.2,Y
1668422755.5,286046997.7,P
1668422775.4,286046997.7,N
1668422795.2,286046996.8,P
1668422815.0,286046997.2,N
1668422816.0,286046997.2,Y
1668422835.8,286046998.1,P
1668422855.6,286046998.1,P
1668422875.5,286046999.4,P
1668422895.3,286046999.2,N
1668422915.1,286046996.9,Y
1668422935.9,286046998.2,P
1668422955.7,286047000.6,P
1668422975.6,286047000.9,N
1668422995.4,286047001.1,N
1668423015.2,286047000.7,N
1668423035.1,286047001.0,N
1668423036.0,286047001.0,N
1668423055.8,286047000.6,N
1668423075.7,286046998.2,N
1668423095.5,286046998.4,N
1668423115.3,286046999.2,N
1668423135.2,286046997.0,N
1668423155.0,286046999.6,N
1668423155.9,286046999.6,N
1668423175.7,286046998.8,N
1668423195.6,286046998.7,N
1668423215.4,286046998.9,N
1668423235.3,286046999.0,N
1668423255.1,286046999.1,N
1668423256.0,286046999.1,N
1668423275.8,286046998.1,N
1668423295.7,286046998.8,N
1668423315.5,286046999.2,N
1668423335.3,286046997.2,N
1668423355.2,286046996.6,N
1668423375.0,286046996.7,N
1668423375.9,286046996.7,N
1668423395.8,286046997.1,N
1668423415.6,286046997.5,N
1668423435.4,286046997.9,N
1668423455.3,286046994.9,Y
1668423475.1,286046997.3,P
1668423495.8,286046996.1,P
1668423515.7,286046997.5,N
1668423535.5,286046995.3,Y
1668423555.4,286046998.8,P
1668423575.2,286046998.9,N
1668423595.0,286046999.3,N
1668423595.9,286046999.3,N
